Location: A�t Bou Chrif
(32.7193°N, 5.2385°W)
Time: 00:46:09
(UTC+00:00)

IGS 5A - Pass Details

Date: 08 August 2020
Orbit: 583 x 588 km, 97.6° (Epoch: 17 September)

Event Time Altitude Azimuth Distance (km) Brightness Sun altitude
Exits shadow 21:17:45 40° 39° (NE) 877 4.3 -23.8°
Drops below altitude 10° 21:20:52 10° 2° (N) 1,918 6.5 -24.3°
Sets 21:23:06 0° 356° (N) 2,822 7.6 -24.6°
